Mexia Limestone County Airpor, TX

9:57 PM CST on November 19, 2019 (GMT -0600)
Mexia-Limestone County

Weather History for KLXY - October, 2019

Change the Weather History Date:

Monday, October 21, 2019

  Actual Average (KACT) Record (KACT)
Temperature  
Mean Temperature 67 °F -  
Max Temperature 78 °F 76 °F 91 °F (2004)
Min Temperature 56 °F 55 °F 36 °F (1976)
Cooling Degree Days 2    
Growing Degree Days 17 (Base 50)    
Moisture  
Dew Point 47 °F    
Average Humidity 53    
Maximum Humidity 97    
Minimum Humidity 23    
Precipitation  
Precipitation 0.62 in - - ()
Sea Level Pressure  
Sea Level Pressure 29.87 in    
Wind  
Wind Speed 14 mph (NNW)    
Max Wind Speed 31 mph    
Max Gust Speed 47 mph    
Visibility 10 miles    
Events Rain , Thunderstorm    
Averages and records for this station are not official NWS values.
T = Trace of Precipitation, MM = Missing Value Source: NWS Daily Summary

Daily Weather History Graph

Daily Weather History Graph

Search for Another Location

Airport or City:

Astronomy

Oct. 21, 2019 Rise Set
Actual Time 7:33 AM CDT 6:47 PM CDT
Civil Twilight 7:08 AM CDT 7:12 PM CDT
Nautical Twilight 6:40 AM CDT 7:40 PM CDT
Astronomical Twilight 6:12 AM CDT 8:08 PM CDT
Moon 12:12 AM CDT (10/21) 2:39 PM CDT (10/21)
Length of Visible Light 12h 03m
Length of Day
11h 14m
Waning Gibbous, 48% of the Moon is Illuminated
Oct 21
Waning Gibbous
Oct 27
New
Nov 4
First Quarter
Nov 12
Full
Nov 19
Last Quarter

Hourly Weather History & Observations

Time (CDT) Temp. Dew Point Humidity Pressure Visibility Wind Dir Wind Speed Gust Speed Precip Events Conditions
12:15 AM 77.9 °F 71.6 °F 81% 29.65 in 10.0 mi South 19.6 mph 29.9 mph N/A   Mostly Cloudy
12:35 AM 77.5 °F 71.2 °F 81% 29.64 in 10.0 mi South 25.3 mph 31.1 mph N/A   Mostly Cloudy
12:55 AM 77.5 °F 71.6 °F 82% 29.62 in 10.0 mi South 24.2 mph 33.4 mph N/A   Mostly Cloudy
1:15 AM 77.9 °F 72.0 °F 82% 29.62 in 10.0 mi South 25.3 mph 35.7 mph N/A   Overcast
1:35 AM 78.3 °F 72.1 °F 81% 29.62 in 10.0 mi South 25.3 mph 33.4 mph N/A   Overcast
1:55 AM 78.4 °F 72.1 °F 81% 29.64 in 10.0 mi South 25.3 mph 34.5 mph N/A   Overcast
2:15 AM 78.4 °F 72.1 °F 81% 29.64 in 10.0 mi South 25.3 mph 33.4 mph N/A   Overcast
2:35 AM 78.4 °F 72.5 °F 82% 29.65 in 10.0 mi South 23.0 mph 32.2 mph N/A   Overcast
2:55 AM 78.8 °F 72.5 °F 81% 29.69 in 10.0 mi SW 18.4 mph 28.8 mph N/A Thunderstorm Overcast
3:15 AM 72.0 °F 62.6 °F 72% 29.80 in 7.0 mi West 31.1 mph 47.2 mph 0.05 in   Overcast
3:35 AM 63.9 °F 61.2 °F 91% 29.75 in 3.0 mi NW 19.6 mph 28.8 mph 0.49 in Rain , Thunderstorm Heavy Thunderstorms and Rain
3:55 AM 61.5 °F 59.2 °F 92% 29.74 in 10.0 mi NW 8.1 mph 24.2 mph 0.55 in Rain , Thunderstorm Light Thunderstorms and Rain
4:15 AM 62.1 °F 59.9 °F 93% 29.72 in 10.0 mi East 4.6 mph - 0.01 in   Light Drizzle
4:35 AM 62.1 °F 61.2 °F 97% 29.75 in 10.0 mi WNW 10.4 mph 18.4 mph 0.01 in   Mostly Cloudy
4:55 AM 63.1 °F 60.1 °F 90% 29.76 in 10.0 mi NW 5.8 mph - 0.01 in   Scattered Clouds
5:15 AM 63.5 °F 59.9 °F 88% 29.79 in 10.0 mi WNW 8.1 mph - N/A   Clear
5:35 AM 63.7 °F 56.8 °F 78% 29.77 in 10.0 mi North 9.2 mph 16.1 mph N/A   Scattered Clouds
5:55 AM 63.0 °F 56.3 °F 79% 29.78 in 10.0 mi NNW 9.2 mph - N/A   Scattered Clouds
6:15 AM 62.6 °F 55.9 °F 79% 29.77 in 10.0 mi NNW 10.4 mph 17.3 mph N/A   Clear
6:35 AM 62.4 °F 55.9 °F 79% 29.77 in 10.0 mi North 12.7 mph 17.3 mph N/A   Clear
6:55 AM 62.1 °F 55.6 °F 79% 29.79 in 10.0 mi NNW 12.7 mph 17.3 mph N/A   Clear
7:15 AM 61.7 °F 56.1 °F 82% 29.81 in 10.0 mi NW 11.5 mph - N/A   Clear
7:35 AM 61.0 °F 50.7 °F 69% 29.82 in 10.0 mi NNW 12.7 mph - N/A   Clear
7:55 AM 59.9 °F 49.6 °F 69% 29.84 in 10.0 mi NNW 12.7 mph - N/A   Clear
8:15 AM 58.8 °F 48.0 °F 67% 29.85 in 10.0 mi North 8.1 mph - N/A   Clear
8:35 AM 58.5 °F 48.0 °F 68% 29.85 in 10.0 mi NNW 9.2 mph - N/A   Clear
8:55 AM 60.1 °F 46.8 °F 61% 29.86 in 10.0 mi NNW 10.4 mph 20.7 mph N/A   Clear
9:15 AM 61.7 °F 44.6 °F 53% 29.87 in 10.0 mi North 12.7 mph - N/A   Clear
9:35 AM 62.6 °F 43.7 °F 50% 29.89 in 10.0 mi North 10.4 mph 18.4 mph N/A   Clear
9:55 AM 64.0 °F 41.9 °F 44% 29.90 in 10.0 mi North 10.4 mph 18.4 mph N/A   Clear
10:15 AM 65.1 °F 40.1 °F 40% 29.90 in 10.0 mi North 9.2 mph 21.9 mph N/A   Clear
10:35 AM 66.4 °F 39.6 °F 37% 29.91 in 10.0 mi North 6.9 mph - N/A   Clear
10:55 AM 68.0 °F 37.6 °F 33% 29.91 in - North 6.9 mph - 0.06 in   Clear
11:10 AM 69.8 °F 38.1 °F 31% 29.91 in 10.0 mi North 10.4 mph 17.3 mph N/A   Clear
11:30 AM 71.4 °F 37.6 °F 29% 29.92 in - North 8.1 mph - N/A   Unknown
11:55 AM 71.6 °F 38.7 °F 30% 29.92 in 10.0 mi NNW 9.2 mph 17.3 mph N/A   Clear
12:15 PM 72.3 °F 39.2 °F 30% 29.92 in 10.0 mi North 4.6 mph 16.1 mph N/A   Clear
12:35 PM 72.9 °F 38.1 °F 28% 29.92 in 10.0 mi NNW 12.7 mph - N/A   Clear
12:55 PM 73.2 °F 37.4 °F 27% 29.91 in 10.0 mi North 6.9 mph - N/A   Clear
1:15 PM 73.8 °F 38.8 °F 28% 29.91 in 10.0 mi NNW 9.2 mph - N/A   Clear
1:35 PM 73.9 °F 37.4 °F 27% 29.91 in 10.0 mi North 6.9 mph 17.3 mph N/A   Clear
1:55 PM 74.3 °F 38.7 °F 28% 29.90 in 10.0 mi NNW 8.1 mph - N/A   Clear
2:15 PM 74.7 °F 37.6 °F 26% 29.90 in 10.0 mi North 5.8 mph - N/A   Clear
2:35 PM 74.5 °F 36.0 °F 25% 29.89 in 10.0 mi North 6.9 mph - N/A   Clear
2:55 PM 75.2 °F 35.4 °F 24% 29.90 in 10.0 mi NNW 6.9 mph - N/A   Clear
3:15 PM 75.4 °F 34.9 °F 23% 29.89 in 10.0 mi NNW 8.1 mph 16.1 mph N/A   Clear
3:35 PM 75.9 °F 35.8 °F 23% 29.90 in 10.0 mi North 5.8 mph - N/A   Clear
3:55 PM 75.6 °F 35.4 °F 23% 29.89 in 10.0 mi NNW 8.1 mph - N/A   Clear
4:15 PM 75.4 °F 35.6 °F 24% 29.89 in 10.0 mi North 6.9 mph - N/A   Clear
4:35 PM 75.4 °F 35.4 °F 23% 29.90 in 10.0 mi NNW 8.1 mph - N/A   Clear
4:55 PM 74.8 °F 36.0 °F 24% 29.89 in 10.0 mi NNW 5.8 mph - N/A   Clear
5:15 PM 74.3 °F 34.9 °F 24% 29.89 in 10.0 mi North 5.8 mph - N/A   Clear
5:35 PM 73.4 °F 34.7 °F 24% 29.89 in 10.0 mi NNW 5.8 mph - N/A   Clear
5:55 PM 72.5 °F 38.1 °F 29% 29.89 in 10.0 mi NNW 6.9 mph - N/A   Clear
6:15 PM 70.5 °F 38.7 °F 31% 29.90 in 10.0 mi NNW 8.1 mph - N/A   Clear
6:35 PM 68.4 °F 39.2 °F 34% 29.92 in 10.0 mi NNW 5.8 mph - N/A   Clear
6:55 PM 65.5 °F 40.3 °F 40% 29.93 in 10.0 mi NNW 3.5 mph - N/A   Clear
7:15 PM 64.6 °F 40.6 °F 42% 29.95 in 10.0 mi NNW 4.6 mph - N/A   Clear
7:35 PM 64.2 °F 39.9 °F 41% 29.97 in 10.0 mi NNW 4.6 mph - N/A   Clear
7:55 PM 61.0 °F 41.9 °F 49% 29.99 in 10.0 mi NNW 5.8 mph - N/A   Clear
8:15 PM 63.7 °F 39.0 °F 40% 30.00 in 10.0 mi North 8.1 mph - N/A   Clear
8:35 PM 63.7 °F 38.7 °F 40% 30.02 in 10.0 mi North 8.1 mph - N/A   Clear
8:55 PM 63.1 °F 38.8 °F 41% 30.03 in 10.0 mi NNE 9.2 mph - N/A   Clear
9:15 PM 62.1 °F 39.2 °F 43% 30.04 in 10.0 mi NNE 6.9 mph - N/A   Clear
9:35 PM 60.8 °F 39.2 °F 45% 30.04 in 10.0 mi Calm Calm - N/A   Clear
9:55 PM 59.4 °F 40.1 °F 49% 30.05 in 10.0 mi Calm Calm - N/A   Clear
10:15 PM 57.7 °F 42.8 °F 57% 30.06 in 10.0 mi South 5.8 mph - N/A   Clear
10:35 PM 58.1 °F 43.2 °F 58% 30.07 in 10.0 mi SSW 5.8 mph - N/A   Clear
10:55 PM 57.7 °F 40.5 °F 53% 30.07 in 10.0 mi South 3.5 mph - N/A   Clear
11:15 PM 56.5 °F 42.3 °F 59% 30.08 in 10.0 mi Calm Calm - N/A   Clear
11:55 PM 56.1 °F 42.4 °F 60% 30.08 in 10.0 mi NNE 3.5 mph - N/A   Clear